This demonstration page uses our WeatherBlox Daily Observations layout. Learn more.

Left ArrowRight Arrow

41.86663, -103.66717

Hourly Observations for August 21, 2020

Temp ( °F °C ) Dew Point ( °F °C ) Humidity (%) Winds ( mph kmh ) Pressure ( in mb ) Visibility ( mi km ) Precip ( " mm )
12:53 am 00:53 Clear 70 21.1 53 11.7 55 55 WNW 7 11 29.71 1006 9 14 N/A
1:53 am 01:53 Clear 67 19.4 53 11.7 61 61 W 6 9 29.71 1006 8 13 N/A
2:53 am 02:53 Clear 66 18.9 53 11.7 63 63 N N/A 29.73 1007 8 13 N/A
3:53 am 03:53 Clear 65 18.3 53 11.7 66 66 N N/A 29.73 1007 8 13 N/A
4:53 am 04:53 Clear 62 16.7 54 12.2 75 75 N 5 7 29.75 1007 8 13 N/A
5:53 am 05:53 Clear 61 16.1 51 10.6 70 70 N 6 9 29.76 1008 8 13 N/A
6:53 am 06:53 Hazy 59 15 52 11.1 78 78 undefined N/A 29.80 1009 5 8 N/A
7:53 am 07:53 Hazy 66 18.9 52 11.1 61 61 N 8 13 29.82 1010 6 10 N/A
8:53 am 08:53 Sunny 71 21.7 53 11.7 53 53 W 6 9 29.83 1010 7 11 N/A
9:53 am 09:53 Sunny 77 25 54 12.2 45 45 W 7 11 29.82 1010 7 11 N/A
10:53 am 10:53 Sunny 84 28.9 51 10.6 32 32 W 7 11 29.80 1009 8 13 N/A
11:53 am 11:53 Sunny 87 30.6 50 10 28 28 VRB 5 7 29.80 1009 9 14 N/A
12:53 pm 12:53 Sunny 90 32.2 50 10 25 25 VRB 7 11 29.79 1009 10 16 N/A
1:53 pm 13:53 Sunny 93 33.9 49 9.4 22 22 VRB 5 7 29.78 1009 9 14 N/A
2:53 pm 14:53 Sunny 94 34.4 50 10 22 22 VRB 6 9 29.77 1008 9 14 N/A
3:53 pm 15:53 Sunny 93 33.9 50 10 23 23 undefined N/A 29.76 1008 9 14 N/A
4:53 pm 16:53 Sunny 94 34.4 49 9.4 21 21 ESE 7 11 29.76 1008 9 14 N/A
5:53 pm 17:53 Sunny 92 33.3 55 12.8 29 29 E 7 11 29.77 1008 9 14 N/A
6:53 pm 18:53 Hazy 86 30 63 17.2 46 46 E 7 11 29.78 1009 6 10 N/A
7:53 pm 19:53 Clear 78 25.6 58 14.4 50 50 E 6 9 29.80 1009 8 13 N/A
8:53 pm 20:53 Clear 76 24.4 56 13.3 50 50 NE 10 17 29.81 1009 10 16 N/A
9:53 pm 21:53 Clear 74 23.3 54 12.2 50 50 S 6 9 29.82 1010 10 16 N/A
10:53 pm 22:53 Clear 69 20.6 58 14.4 68 68 NE 5 7 29.82 1010 9 14 N/A
11:53 pm 23:53 Clear 68 20 55 12.8 63 63 N 8 13 29.80 1009 10 16 N/A

Powered by AerisWeather